GFSSGP_500_spd_150.txt.gz
Wind_Speed
18 29 29 31 35 15 13 16 13 13 8 4 6 5 7 5 4 6 7 4 3 7 9 4 4 15 11 24 22 19 18 19 19 18 18 17 17 14 14 16 14 13 13 14 14 15 16 12 13
26 18 29 34 29 10 17 14 13 13 11 5 5 5 7 6 6 6 5 5 6 5 10 7 12 16 7 16 26 20 19 20 20 18 16 15 14 14 14 14 13 12 10 12 12 12 13 12 11
23 23 27 33 1 13 9 12 14 12 11 9 7 5 5 6 7 6 4 4 6 3 7 19 7 12 5 16 18 21 20 20 20 18 17 16 14 13 11 12 12 11 10 9 10 10 10 9 10
31 33 31 10 13 13 14 11 13 13 9 10 7 8 6 6 7 6 4 4 5 6 17 10 9 6 9 20 17 21 21 20 20 19 18 17 15 11 11 10 10 10 9 7 8 8 7 6 8
31 38 32 14 20 12 18 9 11 11 12 8 10 9 9 8 8 7 5 4 5 6 7 10 11 14 14 24 22 21 21 21 21 19 18 15 14 11 10 10 8 8 7 5 5 7 5 2 5
34 31 25 16 14 10 21 12 9 8 10 12 10 9 9 8 8 7 3 3 3 8 8 4 13 10 14 19 18 14 23 21 21 19 16 14 13 12 9 8 8 7 7 4 4 5 4 1 1
23 10 27 17 17 9 8 10 10 12 10 11 11 10 8 7 7 4 1 2 2 4 9 4 16 14 14 13 15 13 23 24 22 19 17 16 14 12 11 9 9 8 7 5 3 3 3 2 2
31 25 23 8 7 8 8 13 16 16 11 10 9 13 11 9 7 5 3 3 2 1 7 7 3 4 4 12 20 6 4 20 27 22 19 13 14 12 11 10 9 9 8 7 5 4 4 4 4
23 13 6 8 14 8 10 12 17 16 15 14 14 13 10 10 8 7 5 4 3 4 8 4 3 4 6 8 4 9 9 6 16 26 23 16 12 11 9 11 10 10 9 9 8 9 9 8 7
22 4 6 3 12 4 10 4 11 13 14 15 16 12 12 10 10 8 7 6 3 4 7 7 6 6 3 2 5 5 3 12 15 17 14 16 13 11 14 14 11 9 9 10 11 12 12 12 10
4 8 2 3 13 2 5 3 7 9 10 13 14 16 15 14 13 13 13 13 13 12 5 7 1 3 4 7 6 10 8 4 2 2 8 19 17 17 20 18 22 11 11 13 13 15 16 15 14
7 1 5 5 16 8 4 7 3 8 7 11 12 14 14 14 14 15 16 16 17 17 15 9 6 6 4 3 5 7 10 9 7 6 2 8 13 18 24 22 16 15 15 16 16 18 17 18 17
6 0 5 4 10 2 7 5 7 5 7 10 10 12 14 15 16 15 15 13 16 18 18 14 7 7 3 7 9 9 9 6 7 5 2 1 5 11 24 18 11 17 19 18 18 18 19 20 19
11 4 6 3 6 8 4 5 11 10 9 9 10 11 13 15 15 15 15 17 17 16 20 21 16 8 8 16 9 8 8 4 4 5 4 5 3 5 3 10 14 19 23 24 22 21 22 21 21
13 10 6 3 12 5 6 6 11 13 9 7 8 10 12 13 15 16 16 17 17 17 17 20 17 13 10 11 10 11 10 9 10 9 8 6 6 6 5 10 12 15 18 20 22 26 27 31 33
18 12 5 3 2 4 6 6 15 12 9 7 7 9 11 11 13 12 13 14 14 15 15 15 15 14 12 12 12 11 10 10 10 10 9 8 7 6 6 6 5 6 9 11 13 9 15 15 26
7 7 13 3 7 6 5 10 17 15 7 10 9 9 9 9 11 12 12 11 10 11 12 11 9 9 9 10 10 10 9 8 7 6 4 3 3 5 5 6 6 8 10 11 11 12 13 15 9
3 2 9 7 9 4 14 11 25 17 6 10 11 11 11 10 10 12 12 11 9 8 9 10 10 8 7 6 6 6 6 6 4 3 3 3 4 4 6 7 8 9 11 13 14 15 14 13 14
15 5 10 7 5 9 13 17 29 19 8 9 12 15 17 14 12 11 12 11 9 7 8 7 9 9 9 8 8 8 7 6 5 5 6 7 11 11 9 12 13 15 13 15 13 14 15 16 16
21 14 11 9 7 17 13 19 26 11 11 13 7 8 11 14 15 13 11 10 10 9 7 7 6 6 6 6 5 6 6 6 7 9 7 16 13 11 9 15 18 18 18 19 19 19 15 15 18
12 12 8 10 12 15 10 15 24 24 11 19 18 6 6 8 11 13 13 11 10 10 9 8 7 7 7 7 8 8 9 11 16 12 15 12 8 21 15 16 19 21 23 22 27 30 23 25 22
7 7 10 14 12 7 8 11 25 28 27 19 25 18 10 7 9 9 11 14 13 10 9 10 10 10 10 10 11 11 12 15 15 16 13 16 16 15 16 18 20 21 22 24 25 28 27 27 26
11 12 18 16 16 10 16 6 24 25 25 17 16 25 22 13 9 10 8 11 13 13 11 11 11 11 12 13 14 13 13 16 19 17 16 19 22 24 23 24 23 24 26 27 29 30 30 31 30
14 18 20 10 9 13 11 11 13 20 19 17 15 19 24 26 17 9 10 11 12 13 14 14 14 14 13 13 14 15 16 20 23 27 28 27 27 24 23 24 26 29 31 31 32 32 33 33 35
16 12 3 1 5 9 13 12 11 7 13 7 14 20 26 26 22 15 16 16 13 13 15 16 16 18 19 21 22 23 23 24 25 27 29 30 32 34 35 35 35 36 37 39 38 39 40 42 44
15 14 12 1 6 8 16 14 20 26 25 27 25 23 27 25 31 27 17 14 17 17 18 19 18 17 19 20 21 23 24 25 26 27 29 29 29 33 33 34 37 38 40 41 43 44 45 45 44
16 19 19 14 11 12 16 11 20 26 33 32 23 20 27 32 27 35 40 25 19 19 17 17 18 19 21 23 24 23 24 24 25 26 25 28 29 31 34 35 37 39 40 42 43 45 47 51 53
19 11 18 14 12 15 15 24 23 28 29 24 20 19 21 28 35 35 42 39 28 26 23 21 18 19 22 24 23 23 25 26 27 29 32 34 37 38 38 40 43 44 46 47 50 51 52 54 55
22 23 21 13 10 11 15 22 24 31 34 25 24 21 21 21 31 36 36 45 37 36 29 24 27 24 30 31 29 29 27 29 30 32 35 39 42 43 46 48 49 51 52 54 57 59 61 63 63
23 25 19 20 25 20 18 18 27 29 30 28 29 29 20 21 25 27 37 43 52 28 19 22 36 27 40 42 39 27 38 38 40 42 39 43 47 47 50 53 54 56 59 62 62 60 59 60 61

GFSSGP_500_spd_153.txt.gz
Wind_Speed
30 31 22 20 25 21 12 15 16 15 14 13 9 6 9 5 6 3 4 6 6 13 14 10 7 12 15 17 15 15 17 17 16 15 14 12 12 12 11 12 13 11 11 12 13 14 16 18 18
22 23 16 22 21 15 17 16 13 16 17 13 9 6 5 6 7 6 4 4 6 7 10 6 8 10 13 19 16 15 16 17 15 16 14 13 12 12 11 10 11 8 9 10 11 11 13 15 15
20 18 22 26 15 12 14 13 17 15 14 12 10 8 5 6 7 7 5 3 0 5 8 7 20 15 12 17 19 16 15 17 17 15 13 12 11 10 10 11 9 8 8 8 8 7 11 11 14
21 23 33 22 20 16 10 12 16 14 11 13 11 11 8 5 7 7 5 1 1 3 10 16 8 15 6 17 22 18 18 18 17 15 14 12 11 10 7 8 9 7 7 7 6 5 7 8 11
22 26 35 18 23 18 17 15 12 13 11 10 11 11 10 9 7 6 4 1 1 1 5 13 4 4 6 11 18 19 21 19 17 16 14 12 10 7 6 6 6 6 4 5 4 3 3 6 7
35 28 25 20 24 19 26 21 12 7 10 11 9 8 9 9 7 5 2 1 3 2 2 3 8 10 13 17 18 14 20 17 15 16 14 11 10 6 4 5 4 3 2 2 2 0 1 4 5
35 27 27 17 22 17 19 19 19 14 10 12 10 10 8 9 7 6 3 4 2 6 2 6 8 9 7 14 15 8 7 20 18 14 14 12 9 8 9 5 3 3 1 1 2 3 4 3 4
40 32 29 18 18 19 17 21 20 21 14 13 14 13 11 9 7 8 6 3 3 3 5 5 3 5 6 6 9 5 6 12 21 15 14 11 11 9 8 5 4 4 5 5 3 3 5 5 6
28 18 6 9 11 10 10 16 19 21 20 19 17 15 13 11 10 9 9 10 8 6 4 3 7 7 5 3 12 2 6 11 7 19 16 15 13 13 11 8 7 7 7 7 6 6 8 7 7
17 7 7 11 11 19 16 12 14 18 15 16 18 17 15 13 13 13 13 13 11 9 6 4 1 3 2 6 6 7 8 4 7 17 17 16 17 12 11 10 10 10 6 7 9 10 11 12 11
7 3 7 3 8 10 14 15 16 14 15 14 16 17 16 15 14 14 16 16 16 14 10 9 8 7 8 9 9 9 12 9 7 4 9 12 14 14 13 14 13 14 14 10 10 12 13 15 15
6 6 8 5 2 9 12 15 20 20 16 13 15 17 18 18 17 15 15 15 16 16 14 13 11 9 7 7 9 9 12 13 10 6 3 4 8 10 9 13 15 19 20 14 13 15 15 15 17
4 9 5 4 5 5 12 18 20 18 15 15 14 18 17 18 18 18 17 13 15 19 21 15 13 11 14 13 10 9 11 7 6 6 5 3 3 6 12 12 17 16 14 17 17 17 19 20 18
12 10 11 7 1 6 13 13 17 18 15 13 14 13 15 17 18 18 19 16 17 19 20 21 20 16 17 18 15 13 10 8 8 7 6 5 5 5 4 4 2 5 8 14 18 21 24 23 23
13 16 6 11 3 11 9 20 21 22 17 13 12 14 15 14 15 17 18 16 18 20 20 20 21 20 18 17 16 14 11 11 11 10 10 8 7 6 5 4 3 3 5 6 9 11 14 16 25
17 15 5 11 16 14 14 14 27 24 16 12 11 12 13 14 14 16 18 21 20 20 20 18 20 18 18 18 16 14 13 12 10 7 7 8 6 7 7 7 6 4 4 5 7 8 6 4 9
19 10 12 8 21 15 11 20 26 23 13 11 10 12 13 14 15 16 18 18 18 18 20 20 20 17 16 15 14 13 12 10 9 9 7 7 4 3 3 3 4 5 7 7 9 10 8 5 2
12 6 10 12 18 15 18 17 20 20 15 14 16 13 11 12 13 15 16 16 15 16 15 15 15 13 13 12 11 12 12 10 8 8 6 7 7 9 5 4 4 8 9 8 15 11 16 10 4
10 8 8 10 10 10 18 19 23 12 14 22 12 12 13 11 11 12 13 14 14 14 14 13 12 12 11 11 11 12 13 11 11 13 11 8 6 20 13 8 6 12 12 15 17 25 27 15 16
18 9 17 15 19 10 13 15 23 20 24 23 21 10 9 11 13 12 11 10 10 11 11 11 11 11 10 9 10 10 11 9 11 12 11 17 16 22 18 15 10 17 19 18 18 23 27 25 20
22 18 11 17 15 9 10 18 24 28 28 25 19 9 7 7 11 12 11 9 9 8 6 6 7 8 9 9 9 10 9 8 9 12 15 13 16 15 14 16 12 15 19 22 22 22 20 22 25
28 18 9 17 19 11 3 19 23 26 30 29 18 12 5 7 11 10 10 12 10 8 8 7 8 9 9 10 10 9 9 8 10 13 18 16 15 15 14 17 14 17 20 22 24 25 26 24 24
30 12 13 16 11 11 13 17 16 25 27 28 28 18 10 6 7 14 12 13 14 13 9 7 8 9 10 10 10 10 10 9 9 11 11 16 22 21 20 20 21 22 24 25 25 27 28 28 27
18 13 21 24 26 19 15 17 15 22 19 26 26 26 30 15 9 6 19 17 16 16 17 15 13 10 10 10 10 11 11 11 13 18 20 17 16 18 22 24 24 25 27 29 31 34 36 37 37
22 18 14 5 6 6 1 8 20 20 22 23 27 35 36 38 27 8 8 19 18 19 21 21 21 20 18 16 13 15 17 17 16 18 22 23 22 24 24 26 28 31 35 36 37 38 40 41 40
19 17 16 10 6 17 6 16 26 25 27 28 33 35 38 38 36 34 16 18 22 23 20 22 21 22 22 22 22 20 20 20 20 18 21 23 25 24 27 31 31 29 33 36 39 38 40 43 44
17 17 18 19 12 8 14 18 21 24 26 28 32 34 36 38 35 34 34 19 20 27 27 22 22 24 26 26 25 25 26 23 21 17 16 19 20 26 31 34 37 39 38 40 43 45 45 46 47
22 11 27 23 18 9 14 19 19 23 26 32 16 18 21 29 37 36 36 36 32 39 32 31 26 39 30 31 30 23 31 31 27 21 16 12 26 37 35 38 43 46 49 48 51 51 51 51 53
27 27 29 23 17 8 12 21 24 29 33 31 26 23 26 25 30 36 36 40 29 30 29 36 48 34 34 32 35 28 24 38 33 28 24 12 29 40 41 44 46 48 51 49 53 53 53 54 52
20 28 26 28 28 21 19 23 27 28 32 35 30 26 29 29 26 27 31 32 36 37 42 45 26 41 42 41 49 21 33 18 10 33 39 50 39 47 53 50 50 51 56 55 58 56 58 58 56

GFSSGP_500_spd_156.txt.gz
Wind_Speed
24 22 18 15 20 20 17 21 17 14 10 9 11 11 10 7 4 4 7 9 14 15 16 10 11 15 14 12 12 13 15 14 12 11 11 11 11 11 10 10 10 13 12 12 14 15 15 17 18
19 21 23 23 24 18 17 22 16 13 10 10 10 9 7 7 6 6 6 6 9 21 11 9 7 10 11 12 11 11 13 14 11 10 10 10 10 9 9 9 8 9 9 11 11 13 12 15 16
23 25 25 28 28 22 16 16 18 15 11 10 9 8 8 8 8 5 5 5 5 11 9 8 11 9 8 12 11 11 13 14 13 10 9 8 8 7 7 6 6 7 7 9 9 10 10 12 15
22 27 32 35 27 25 19 18 19 16 15 10 9 10 9 8 8 6 4 3 1 2 8 9 17 8 7 12 13 12 11 13 13 11 9 8 8 7 6 5 4 5 5 6 6 7 8 10 12
17 24 32 33 29 28 23 16 16 15 9 10 8 12 11 8 7 5 2 2 2 4 3 14 4 6 3 6 14 19 15 13 13 12 10 8 7 6 4 5 4 4 5 4 3 5 5 7 9
14 24 29 30 25 27 26 21 11 12 12 9 11 9 9 9 6 3 3 2 3 4 5 9 7 3 5 11 10 23 10 16 13 11 10 8 7 7 4 3 3 3 3 4 4 4 5 6 7
16 20 27 27 27 26 28 24 15 13 13 14 11 11 9 8 8 7 3 5 6 9 6 2 1 6 9 13 15 9 12 21 18 12 11 10 9 8 4 4 3 2 1 2 3 4 4 5 6
20 17 18 23 22 23 24 24 19 21 18 15 16 14 11 8 8 9 9 6 6 5 6 6 8 6 11 14 5 7 8 6 18 13 11 12 9 9 9 8 5 3 3 4 4 4 4 5 5
17 17 18 21 19 18 23 18 21 22 20 21 20 18 15 13 11 10 10 9 5 5 4 7 9 8 6 4 12 14 1 4 8 18 16 13 12 14 10 9 7 6 5 6 6 4 7 10 9
11 15 14 17 12 25 20 19 18 20 21 19 22 20 19 18 15 13 14 14 10 6 6 4 6 8 6 7 8 11 9 6 9 15 16 17 16 16 16 11 10 8 6 7 7 7 8 9 10
6 15 12 9 11 19 19 15 18 17 17 16 20 19 19 18 17 16 17 16 16 12 7 11 12 11 10 9 6 12 14 13 11 11 14 14 19 17 16 13 10 10 8 12 9 11 11 10 14
10 7 7 6 16 14 17 22 21 18 13 13 16 16 17 19 20 20 17 17 16 15 12 13 11 9 12 9 7 10 13 16 10 7 10 11 12 12 16 14 13 13 15 19 19 13 13 14 16
5 2 11 21 19 20 27 23 22 19 13 14 13 14 15 18 21 21 21 17 19 19 16 13 14 13 13 11 5 9 11 13 11 8 7 5 8 9 14 16 14 17 15 11 20 24 22 17 17
6 4 17 24 21 17 26 25 20 18 15 14 13 13 14 18 20 21 21 19 21 22 20 17 16 14 13 14 12 13 13 9 7 6 5 5 3 2 1 1 2 5 10 11 15 19 22 23 25
14 4 13 19 29 20 18 27 20 19 18 16 13 14 15 19 19 21 22 21 22 22 21 21 19 17 16 13 13 13 12 10 8 6 3 2 1 2 1 1 3 3 3 3 5 9 12 15 18
21 9 4 20 24 16 19 26 28 28 22 16 16 14 16 18 18 19 20 19 19 20 20 19 19 19 18 17 17 16 14 12 11 7 5 7 7 7 7 6 4 4 6 8 10 9 9 8 5
15 12 2 14 20 17 13 17 23 25 26 21 16 16 16 15 16 17 18 17 16 18 17 17 17 17 16 14 15 13 12 12 10 10 12 13 11 13 8 8 9 11 12 14 13 13 10 15 7
15 7 6 7 13 22 11 12 13 16 21 27 17 15 16 15 13 13 14 15 15 16 15 15 14 14 13 12 12 10 9 8 5 7 9 16 12 9 9 10 8 10 16 21 28 26 22 20 16
10 1 5 3 12 19 11 9 11 17 25 26 26 8 12 14 15 13 11 12 13 15 14 13 12 12 10 8 8 7 7 4 3 4 11 9 8 10 4 5 3 10 11 17 21 20 18 15 15
13 4 6 11 14 20 14 5 14 18 21 22 24 21 12 10 12 12 12 12 12 11 10 10 11 12 10 9 7 5 1 2 4 5 6 5 7 9 8 5 6 8 13 17 18 18 18 16 15
16 5 7 4 11 16 18 5 12 15 17 20 20 21 16 12 13 13 13 13 13 12 9 8 9 8 8 9 7 6 6 7 3 4 5 4 6 7 8 7 7 11 17 22 24 23 23 22 19
21 14 12 8 13 17 20 12 12 10 15 18 15 13 12 20 19 16 16 16 16 15 15 14 13 13 11 10 11 12 9 8 7 5 6 6 8 6 6 7 9 12 16 17 19 22 23 23 23
18 18 17 8 11 21 16 14 9 12 16 14 16 17 25 24 13 15 19 19 22 23 21 19 17 17 17 17 16 15 14 12 9 7 11 10 10 9 10 12 16 20 23 25 28 28 30 32 32
27 29 22 17 19 13 9 19 13 14 16 21 23 26 23 14 13 15 12 18 20 25 24 30 28 23 18 14 16 16 16 16 16 12 10 12 16 15 13 9 12 15 19 22 27 31 33 34 35
38 36 20 16 16 4 7 20 5 14 15 18 23 24 23 22 22 22 16 14 18 21 24 31 31 30 27 23 21 22 21 20 19 19 16 15 16 19 17 12 17 22 25 26 30 32 36 36 36
40 32 21 15 15 15 13 20 5 12 18 19 22 21 21 22 24 25 25 19 18 20 24 28 23 30 28 27 33 34 34 26 21 18 21 21 20 26 21 14 25 28 30 36 37 36 37 40 41
31 25 21 21 16 8 6 12 12 12 14 20 21 22 22 25 23 25 22 24 26 25 22 31 28 33 39 39 35 33 40 30 27 33 27 30 35 35 22 20 29 34 37 41 45 43 46 46 47
27 21 27 25 20 10 9 15 18 16 18 20 23 24 24 29 27 29 26 27 27 31 19 17 30 39 49 45 47 27 27 28 32 31 27 13 26 25 30 33 35 42 42 44 46 45 47 48 48
25 28 29 24 21 17 17 16 14 20 17 20 26 24 30 30 32 32 32 31 26 28 31 29 32 39 43 40 43 46 20 25 24 23 8 28 29 29 34 38 38 45 44 44 46 48 50 51 52
16 11 26 29 26 26 21 18 12 16 20 22 24 26 23 30 29 35 23 23 25 26 28 30 33 34 36 38 36 45 38 23 24 29 22 36 36 35 38 35 46 48 47 48 50 53 55 55 54

GFSSGP_500_spd_159.txt.gz
Wind_Speed
14 17 18 18 20 20 12 15 17 15 14 13 11 10 10 8 5 7 9 10 16 15 15 13 11 11 9 7 8 11 11 11 10 10 10 9 9 8 9 10 10 11 13 12 14 15 17 17 19
26 24 22 17 18 19 13 18 16 13 12 11 9 9 7 9 8 8 7 9 12 16 11 7 7 9 8 7 8 9 10 10 9 9 9 8 7 6 7 7 8 9 10 11 13 14 15 15 17
33 28 26 22 20 19 18 17 14 13 11 9 9 10 8 8 7 7 8 5 9 14 8 6 6 7 8 8 7 9 10 9 7 7 7 8 8 6 6 6 6 7 7 9 11 12 14 14 15
26 28 27 27 23 22 20 20 16 15 14 13 11 10 7 5 4 7 6 7 5 6 4 5 13 7 4 5 6 6 9 10 8 6 6 7 7 7 6 6 5 5 6 7 7 9 11 11 11
17 26 33 33 29 28 26 22 23 19 13 11 8 9 8 5 2 4 5 3 3 4 2 8 12 9 6 5 7 9 12 11 11 9 7 7 7 7 5 4 5 6 6 5 5 6 9 10 10
19 27 31 31 29 28 27 25 19 15 12 10 7 8 9 4 2 2 5 3 3 4 15 11 9 8 2 3 5 11 19 16 12 10 8 8 8 7 4 3 4 4 5 5 6 5 8 8 7
15 23 28 29 27 21 22 25 20 18 15 13 11 6 9 5 4 4 5 6 8 10 10 8 7 6 11 2 10 7 12 17 14 12 9 8 7 6 7 6 3 2 1 2 2 3 5 4 4
15 22 26 28 24 18 22 25 20 22 20 16 14 12 11 7 6 6 7 7 9 12 12 10 10 10 9 3 6 8 7 9 21 16 11 10 8 7 5 5 3 4 4 3 2 3 1 1 2
16 22 26 27 27 19 23 23 19 22 20 18 19 18 18 15 13 10 8 8 9 8 9 11 16 10 5 6 16 9 5 4 21 18 15 12 9 9 7 7 7 8 6 6 6 6 4 3 2
16 21 24 23 20 24 21 18 16 20 19 18 20 20 19 18 16 14 13 11 10 11 12 11 10 10 7 6 20 14 9 8 18 18 14 12 12 11 11 10 11 10 8 7 8 9 8 6 6
11 20 23 18 19 25 22 16 16 18 19 17 20 20 18 17 17 15 15 13 12 12 15 15 13 10 7 6 12 14 9 10 11 18 15 11 14 14 12 13 13 12 13 12 12 14 13 11 9
21 25 27 21 23 27 25 18 18 18 17 16 18 17 16 17 19 18 16 14 14 15 14 13 14 10 8 8 8 11 12 10 6 11 11 11 11 14 16 13 16 17 17 18 20 21 21 16 15
31 32 29 17 26 27 27 21 20 19 18 16 16 15 14 16 20 21 18 18 16 13 13 14 13 11 11 10 7 10 15 13 9 6 4 2 4 7 11 16 19 20 20 21 19 20 21 24 26
33 24 27 24 23 27 31 28 27 24 19 18 16 15 13 16 19 22 20 19 18 14 14 13 13 12 11 11 9 11 11 12 6 6 4 1 4 5 6 8 7 10 13 16 13 11 13 18 20
29 23 27 26 25 26 30 30 35 32 25 20 18 19 17 16 19 20 21 19 18 17 16 14 14 13 12 10 10 10 11 12 9 8 7 7 6 6 7 7 8 7 7 10 11 13 16 16 9
17 20 23 28 24 19 22 25 27 32 31 25 19 19 19 18 17 17 19 20 19 18 17 17 17 16 15 13 12 13 14 12 13 11 9 8 5 2 1 4 6 8 8 12 14 11 15 18 11
16 17 21 22 21 22 19 18 21 26 28 25 18 17 19 19 20 19 17 18 18 18 18 17 16 15 15 15 14 15 15 15 13 11 7 5 2 3 6 6 6 7 11 12 12 14 13 14 13
4 8 12 13 9 17 10 14 17 22 24 27 15 18 20 19 19 18 17 18 17 16 16 15 16 16 15 14 12 12 13 11 10 10 11 6 10 12 10 10 10 7 8 13 13 11 10 10 9
7 3 6 1 6 11 7 10 16 22 22 21 22 13 13 17 18 19 17 16 15 16 16 17 17 16 15 14 12 11 12 10 9 9 9 3 5 4 9 10 9 9 10 13 13 9 10 11 10
11 9 7 9 4 8 5 10 12 19 20 19 19 23 24 21 18 17 19 18 16 15 16 15 14 13 12 12 11 10 10 8 6 5 5 4 5 7 9 9 12 13 14 14 15 13 13 12 12
16 13 9 6 2 7 4 8 7 14 18 16 15 18 23 22 19 17 19 21 20 18 17 17 16 14 12 11 9 9 7 4 4 7 6 7 8 9 12 9 11 12 15 15 15 14 16 14 14
15 9 9 6 2 3 3 3 7 11 15 18 14 10 17 20 17 17 17 19 19 18 18 24 22 20 18 15 14 12 8 6 9 8 9 13 13 12 13 13 10 14 15 15 18 21 24 26 27
17 14 8 3 3 6 2 1 5 8 14 13 15 19 19 16 14 11 15 17 20 21 21 23 23 24 19 15 14 14 12 11 12 12 13 14 16 16 17 18 17 15 14 17 20 23 25 28 30
24 16 14 13 12 5 3 3 5 8 10 9 10 13 15 17 19 16 13 13 14 15 16 16 22 21 25 21 21 18 18 18 17 17 16 15 17 18 22 23 20 21 19 16 20 25 27 29 33
26 18 19 21 15 7 5 6 1 5 8 7 7 10 13 20 22 25 18 15 15 21 20 17 24 22 28 35 36 37 25 51 42 20 22 20 19 23 25 28 26 31 20 20 26 32 33 37 36
31 23 21 16 14 14 15 9 4 7 7 6 5 9 12 17 23 22 24 23 23 16 23 21 19 26 23 23 38 37 28 44 24 23 22 24 30 32 35 32 31 26 27 26 28 32 37 42 43
33 26 24 22 21 20 16 14 9 5 3 4 6 10 11 15 19 19 23 19 16 14 17 22 26 43 30 32 32 36 33 43 37 27 25 28 37 21 19 20 23 31 40 44 37 42 43 45 45
36 31 25 27 29 25 17 19 14 11 10 8 7 6 10 14 17 18 23 12 10 16 19 21 25 26 32 34 33 30 33 35 34 27 18 17 29 22 28 33 31 34 39 43 42 47 44 45 46
36 34 30 31 33 26 19 20 20 19 14 12 11 10 14 12 16 19 24 12 16 24 21 20 24 27 31 34 34 32 31 30 32 26 24 26 29 30 36 42 40 42 42 41 46 47 47 50 51
34 38 34 34 31 26 25 26 23 24 23 18 17 16 14 18 21 24 24 23 24 28 28 28 28 31 32 33 36 36 34 33 33 31 32 35 36 37 39 42 42 41 41 44 47 47 50 52 53

GFSSGP_500_spd_165.txt.gz
Wind_Speed
16 14 13 14 16 14 15 14 15 15 12 11 11 9 6 11 16 11 15 10 13 18 16 12 11 11 10 10 10 10 12 12 11 11 11 13 13 13 12 13 14 14 15 16 18 18 17 18 17
25 20 12 13 16 15 13 14 15 14 14 12 10 9 9 14 11 11 16 13 14 15 10 12 10 9 9 9 10 10 11 11 10 10 10 12 12 10 10 11 12 13 14 15 14 15 15 15 15
25 20 14 13 12 15 17 14 13 15 14 12 9 11 11 11 13 14 14 14 16 13 9 8 9 9 9 9 9 9 10 10 9 9 9 10 10 10 10 9 10 11 10 12 11 12 12 12 13
26 24 19 18 14 14 15 15 16 16 15 13 10 10 12 12 10 12 13 11 13 12 10 8 7 10 10 8 9 9 8 9 8 8 9 9 9 10 10 9 8 8 9 8 8 9 9 9 10
26 24 22 20 19 18 17 14 13 14 13 13 11 9 10 12 10 9 9 11 8 7 7 4 8 7 10 10 9 8 10 9 11 10 9 10 9 10 10 8 7 6 6 5 5 5 7 6 7
23 24 23 20 21 22 21 19 17 13 13 12 10 7 10 10 9 7 8 10 10 9 10 8 12 12 9 9 8 12 14 16 12 11 11 11 10 9 8 6 6 4 6 5 5 4 4 4 4
21 24 23 20 21 22 21 21 21 15 13 12 9 6 8 10 7 7 8 8 9 12 12 6 7 7 8 6 3 9 9 14 21 15 13 11 10 10 7 5 3 3 3 3 3 3 2 2 3
19 24 22 19 20 21 20 20 22 21 15 14 13 9 5 8 6 6 7 10 15 11 12 11 7 4 6 4 8 1 1 6 21 17 13 10 9 8 6 4 2 0 3 3 3 2 2 3 4
19 20 21 19 19 20 19 19 20 22 19 18 16 14 12 10 6 4 6 10 14 16 15 11 10 8 9 12 5 6 4 3 14 19 13 9 7 4 1 1 2 2 4 4 7 4 2 3 4
18 20 22 20 20 20 17 18 18 20 20 21 18 14 13 12 10 7 5 7 10 12 15 13 13 9 7 8 10 5 2 4 10 16 10 7 7 5 3 4 4 6 10 9 10 12 11 8 6
17 21 27 26 24 22 18 16 16 17 18 18 18 17 14 12 11 10 7 6 7 4 2 6 9 8 8 5 5 1 7 4 4 11 9 8 9 8 8 11 15 14 14 14 14 14 12 12 16
24 23 30 34 31 26 22 18 17 17 19 18 18 19 17 16 15 14 14 11 7 5 6 3 3 3 3 3 7 4 3 1 4 4 10 9 9 8 8 7 8 10 11 15 15 14 17 17 13
31 30 35 36 33 29 28 23 20 19 21 20 20 20 20 21 21 21 18 14 11 9 6 4 2 3 7 8 4 3 2 4 6 1 3 1 2 3 5 5 6 6 5 2 2 1 4 9 7
27 31 33 34 34 30 31 27 22 21 22 22 20 19 19 21 24 23 22 21 18 16 14 12 9 10 6 10 9 9 7 7 8 4 2 4 5 5 7 8 6 6 6 5 3 1 5 11 9
28 28 30 29 28 29 30 30 26 24 23 22 20 20 20 21 22 23 23 23 22 21 19 17 15 17 14 13 11 10 7 5 4 4 5 5 7 5 5 5 5 6 7 12 8 3 4 2 4
29 28 26 26 24 25 26 28 27 23 23 23 19 18 20 21 21 20 20 22 23 23 23 21 21 21 18 17 15 12 10 9 10 9 6 6 8 9 8 7 10 12 7 5 3 5 12 8 9
30 29 25 24 23 22 22 24 24 24 18 18 19 15 16 19 20 19 18 18 19 20 20 20 20 20 18 16 14 12 9 8 9 8 10 7 9 11 8 9 11 10 14 11 9 12 13 12 10
30 27 23 20 19 19 21 21 21 20 23 18 17 16 14 14 16 17 17 17 17 17 17 17 17 16 14 12 9 7 5 4 5 7 8 7 8 7 6 6 7 9 10 9 11 14 14 15 16
29 25 23 20 19 18 19 20 19 19 19 17 16 14 14 14 13 13 13 13 14 14 15 15 15 13 10 8 6 5 5 6 8 7 7 10 8 7 8 9 10 11 13 12 12 13 15 17 19
28 20 20 18 19 15 15 16 18 18 17 12 15 14 13 13 12 12 14 14 13 13 13 13 13 12 12 10 8 8 8 11 14 16 16 15 12 12 14 15 15 15 14 15 16 18 17 17 17
25 20 20 17 11 18 14 12 15 16 16 14 11 10 10 9 8 9 13 15 14 10 10 10 11 12 10 8 7 6 7 11 15 17 20 19 18 18 15 17 18 18 19 20 20 21 22 22 20
22 19 21 13 15 16 15 11 15 14 13 13 12 10 8 8 8 9 10 12 11 10 12 19 14 14 13 12 18 19 3 8 16 26 23 18 14 17 19 18 19 21 19 22 23 23 25 27 26
20 17 10 14 18 14 18 16 16 15 10 5 10 11 13 8 8 11 12 11 19 16 18 21 13 12 10 14 16 13 9 7 13 25 26 14 13 14 20 19 21 22 26 30 30 34 35 33 29
23 19 18 19 22 16 21 20 18 14 10 6 3 5 8 10 11 12 11 13 18 21 15 14 8 10 8 12 15 16 15 13 15 20 28 17 10 16 23 23 24 26 33 29 30 29 29 31 36
25 24 21 21 24 20 25 25 20 14 14 11 8 7 3 5 7 15 15 15 17 19 18 13 13 13 12 13 15 17 18 18 19 19 22 23 20 20 24 27 27 31 37 27 26 30 35 35 36
30 26 21 19 18 21 24 21 20 14 11 9 12 6 2 3 11 16 16 15 16 18 16 18 18 16 15 15 15 17 19 22 23 21 18 19 20 23 22 23 22 26 30 30 38 43 41 40 39
32 30 22 20 20 23 21 23 21 16 13 9 7 4 6 3 4 11 13 9 13 15 15 17 17 16 14 15 18 20 22 23 23 23 23 23 24 24 23 26 26 29 31 34 38 42 45 44 44
35 30 28 25 22 19 20 22 17 16 14 14 12 8 11 7 3 4 9 12 11 12 13 16 18 18 18 20 20 22 24 23 23 23 24 24 27 28 28 27 28 29 32 34 37 41 43 45 45
37 36 33 30 27 23 19 18 16 15 12 13 14 17 14 10 6 3 7 11 9 10 12 16 21 22 22 23 23 23 25 27 28 28 27 27 29 31 32 32 32 34 35 37 41 44 45 47 51
38 38 33 33 31 27 23 18 19 20 17 12 14 14 11 14 11 5 9 11 10 11 13 16 21 23 25 26 24 27 28 29 31 34 34 32 32 33 34 35 36 37 39 40 40 43 47 50 51